Broken Bow, NE

3:43 AM CDT on April 24, 2017 (GMT -0500)
Broken Bow Municipal

Weather History for KBBW - May, 2014

Change the Weather History Date:

Wednesday, May 7, 2014

  Actual Average Record
Temperature  
Mean Temperature 66 °F 56 °F  
Max Temperature 79 °F 69 °F 99 °F (1934)
Min Temperature 52 °F 43 °F 21 °F (1972)
Degree Days  
Heating Degree Days 0 10  
Month to date heating degree days 63 75  
Cooling Degree Days 1 0  
Month to date cooling degree days 1 0  
Year to date cooling degree days 1 1  
Growing Degree Days 14 (Base 50)    
Moisture  
Dew Point 50 °F    
Average Humidity 63    
Maximum Humidity 83    
Minimum Humidity 42    
Precipitation  
Precipitation 0.01 in 0.09 in 1.22 in (1938)
Sea Level Pressure  
Sea Level Pressure 29.56 in    
Wind  
Wind Speed 15 mph (North)    
Max Wind Speed 33 mph    
Max Gust Speed 40 mph    
Visibility 10 miles    
Events Rain , Thunderstorm    
T = Trace of Precipitation, MM = Missing Value Source: NWS Daily Summary

Daily Weather History Graph

Daily Weather History Graph

Search for Another Location

Airport or City:

Trip Planner

Search our weather history database for the weather conditions in past years. The results will help you decide how hot, cold, wet, or windy it might be!

Date:

Astronomy

May. 07, 2014 Rise Set
Actual Time 6:28 AM CDT 8:42 PM CDT
Civil Twilight 5:57 AM CDT 9:13 PM CDT
Nautical Twilight 5:19 AM CDT 9:51 PM CDT
Astronomical Twilight 4:38 AM CDT 10:33 PM CDT
Moon 1:44 PM CDT (5/7) 2:33 AM CDT (5/7)
Length of Visible Light 15h 16m
Length of Day
14h 14m
First Quarter, 55% of the Moon is Illuminated
May 7
First Quarter
May 14
Full
May 21
Last Quarter
May 28
New
Jun 5
First Quarter

Hourly Weather History & Observations

Time (CDT) Temp. Dew Point Humidity Pressure Visibility Wind Dir Wind Speed Gust Speed Precip Events Conditions
12:53 AM 57.0 °F 46.9 °F 69% 29.50 in 10.0 mi North 13.8 mph - N/A   Clear
1:53 AM 55.9 °F 46.9 °F 72% 29.48 in 10.0 mi NNE 9.2 mph - N/A   Clear
2:53 AM 54.0 °F 46.9 °F 77% 29.46 in 10.0 mi North 6.9 mph - N/A   Clear
3:53 AM 51.8 °F 46.4 °F 82% 29.51 in 10.0 mi North 11.5 mph - N/A   Clear
4:53 AM 54.0 °F 46.9 °F 77% 29.51 in 10.0 mi NNW 17.3 mph - N/A   Clear
5:53 AM 52.0 °F 46.9 °F 83% 29.50 in 10.0 mi North 10.4 mph - N/A   Clear
6:53 AM 53.1 °F 46.9 °F 80% 29.52 in 10.0 mi North 4.6 mph - N/A   Clear
7:53 AM 57.0 °F 48.0 °F 72% 29.53 in 10.0 mi North 18.4 mph - N/A   Clear
8:53 AM 57.9 °F 48.0 °F 70% 29.55 in 10.0 mi North 11.5 mph - N/A   Clear
9:53 AM 62.1 °F 48.9 °F 62% 29.55 in 10.0 mi NNE 17.3 mph 23.0 mph N/A   Clear
10:53 AM 66.9 °F 50.0 °F 54% 29.54 in 10.0 mi North 20.7 mph 25.3 mph N/A   Clear
11:53 AM 71.1 °F 52.0 °F 51% 29.55 in 10.0 mi North 12.7 mph 23.0 mph N/A   Clear
12:53 PM 73.9 °F 52.0 °F 46% 29.56 in 10.0 mi NNE 13.8 mph - N/A   Clear
1:53 PM 75.9 °F 53.1 °F 45% 29.55 in 10.0 mi NNE 16.1 mph 24.2 mph N/A   Partly Cloudy
2:53 PM 77.0 °F 53.1 °F 43% 29.55 in 10.0 mi NE 11.5 mph - N/A   Scattered Clouds
3:53 PM 78.1 °F 53.1 °F 42% 29.55 in 10.0 mi NNE 12.7 mph 20.7 mph N/A   Mostly Cloudy
4:53 PM 75.0 °F 53.1 °F 46% 29.55 in 10.0 mi NNE 10.4 mph - N/A   Mostly Cloudy
5:53 PM 73.0 °F 52.0 °F 48% 29.55 in 10.0 mi NNE 16.1 mph 23.0 mph N/A   Partly Cloudy
6:53 PM 69.1 °F 51.1 °F 53% 29.56 in 10.0 mi NNE 12.7 mph - N/A   Clear
7:53 PM 66.0 °F 50.0 °F 56% 29.53 in 10.0 mi North 31.1 mph 38.0 mph N/A   Partly Cloudy
8:24 PM 64.9 °F 48.9 °F 56% 29.60 in 10.0 mi NNE 19.6 mph 26.5 mph N/A Thunderstorm Scattered Clouds
8:40 PM 64.9 °F 50.0 °F 58% 29.68 in 10.0 mi North 13.8 mph 23.0 mph 0.00 in Rain , Thunderstorm Light Thunderstorms and Rain
8:53 PM 63.0 °F 51.1 °F 65% 29.59 in 10.0 mi NNE 20.7 mph 27.6 mph 0.01 in Rain , Thunderstorm Light Thunderstorms and Rain
8:57 PM 63.0 °F 51.1 °F 65% 29.63 in 10.0 mi North 19.6 mph 27.6 mph 0.00 in Rain Light Rain
9:53 PM 62.1 °F 50.0 °F 65% 29.55 in 10.0 mi NNE 19.6 mph 29.9 mph 0.00 in   Clear
10:53 PM 59.0 °F 50.0 °F 72% 29.58 in 10.0 mi NNE 25.3 mph 36.8 mph N/A   Clear
11:39 PM 57.2 °F 48.2 °F 72% 29.71 in 10.0 mi NW 12.7 mph 25.3 mph N/A   Scattered Clouds
11:53 PM 57.0 °F 48.9 °F 74% 29.64 in 10.0 mi North 10.4 mph - N/A   Scattered Clouds